This is the latest recevied weather packets stored in our database for station/object KY4LEX. If no packets are shown the sender has not sent any weather packets the latest 10 day(s).
| Time | Temp. | Humidity | Pressure | Rain* | Wind** | Luminosity | Snow |
|---|---|---|---|---|---|---|---|
| 1777745141 | 12.78° C | 45% | 1022.6 hPa | 0 mm | - | 169 W/m² | - |
| 1777744838 | 12.78° C | 45% | 1022.5 hPa | 0 mm | - | 162 W/m² | - |
| 1777744537 | 12.78° C | 45% | 1022.6 hPa | 0 mm | - | 95 W/m² | - |
| 1777744234 | 12.78° C | 44% | 1022.6 hPa | 0 mm | - | 97 W/m² | - |
| 1777743325 | 13.33° C | 41% | 1022.8 hPa | 0 mm | - | 224 W/m² | - |
| 1777743023 | 12.78° C | 43% | 1022.7 hPa | 0 mm | - | 224 W/m² | - |
| 1777742720 | 12.78° C | 43% | 1022.8 hPa | 0 mm | - | 151 W/m² | - |
| 1777742416 | 13.89° C | 41% | 1022.7 hPa | 0 mm | - | 203 W/m² | - |
| 1777741506 | 13.89° C | 44% | 1022.8 hPa | 0 mm | - | 195 W/m² | - |
| 1777740596 | 14.44° C | 39% | 1022.9 hPa | 0 mm | - | 309 W/m² | - |
| 1777739685 | 14.44° C | 41% | 1023.1 hPa | 0 mm | - | 899 W/m² | - |
| 1777739383 | 14.44° C | 42% | 1022.9 hPa | 0 mm | - | 235 W/m² | - |
| 1777739079 | 13.89° C | 39% | 1023.1 hPa | 0 mm | - | 369 W/m² | - |
| 1777738777 | 13.89° C | 43% | 1022.9 hPa | 0 mm | - | 456 W/m² | - |
| 1777738171 | 14.44° C | 43% | 1023 hPa | 0 mm | - | 297 W/m² | - |
| 1777737868 | 14.44° C | 45% | 1023 hPa | 0 mm | - | 126 W/m² | - |
| 1777737567 | 15° C | 42% | 1023 hPa | 0 mm | - | 742 W/m² | - |
| 1777737266 | 14.44° C | 44% | 1023.2 hPa | 0 mm | - | 696 W/m² | - |
| 1777736961 | 14.44° C | 42% | 1022.9 hPa | 0 mm | - | 695 W/m² | - |
| 1777736061 | 13.89° C | 46% | 1023 hPa | 0 mm | - | 664 W/m² | - |
| 1777735757 | 13.33° C | 47% | 1023.2 hPa | 0 mm | - | 634 W/m² | - |
| 1777735455 | 12.78° C | 48% | 1023.3 hPa | 0 mm | - | 664 W/m² | - |
| 1777735153 | 12.78° C | 50% | 1023.1 hPa | 0 mm | - | 125 W/m² | - |
| 1777734849 | 12.78° C | 48% | 1023.3 hPa | 0 mm | - | 634 W/m² | - |
| 1777734546 | 12.22° C | 50% | 1023.3 hPa | 0 mm | - | 589 W/m² | - |
* Rain latest hour (hover to see other rain measurements)
** Current wind speed in m/s (hover to see current wind gust speed)